DECAYED

STARLINK-1804, 46704 (Decayed)

Orbit data source: Space-Track

STARLINK-1804, 46704 was a payload satellite owned by SpaceX/Seattle (US) in LEO that was launched on Sun, 18 Oct 2020 UTC via an FALCON 9 launch vehicle from the Air Force Eastern Test Range (AFETR). Payloads include a variety of satellites, spacecraft, and rockets equipped with specific instruments for various scientific and technological missions. These include communications satellites like Starlink; space stations such as the ISS; scientific satellites like the Hubble; Earth observation satellites from companies like Planet Labs, Umbra, and HawkEye 360; GPS; miniature CubeSats for education and research; and military/defense satellites.

Not visible in the next 10 days
STARLINK-1804 details
Identifier
46704, 2020-073AL
Orbit
Decayed
Last TLE update7 months ago
Origin
Flag of USSpaceX/Seattle (US)
ManufacturerSpaceX/Seattle
MissionDecayed Commercial Communications
Bus & MotorSTARLINK, Unknown motor
Mass260 kg wet, ~248 kg dry
Launch date (UTC)
2020-10-18 (4 years ago)
Launch vehicle
FALCON 9
Launch site
Air Force Eastern Test Range (AFETR)
Object type
Payload
Rocket body
Debris
Shape & HBRBox + 1 Pan, 8.86 m
Radar Cross Section13.562 m², Large (>1 m²)

Expand to show TLE details & history

TLE from 7 months ago
0 STARLINK-1804
1 46704U 20073AL  24161.30844560  .34335862  12381-4  29875-2 0  9993
2 46704  53.0294 164.7593 0004460 326.4147 133.9332 16.38508121202274
Epoch: 2024-06-09T07:24Z
Definitive object data (Epoch: 2024-06-09T07:24:09.699Z)
Latitude51.95759°
Longitude-97.47539°
Altitude178.002 km
Speed7.805 km/s
True Right ascension18h 06m 54s
True Declination51° 46' 33"
Sunlit
Object was in full shadow at TLE epoch
Visualization observer readout
Observer readout values are unavailable because the object's trajectory could not be propagated. This is usually caused when the trajectory data is faulty or the object's orbit has decayed.
Visualization observer readout
Observer readout values are unavailable because the object's trajectory could not be propagated. This is usually caused when the trajectory data is faulty or the object's orbit has decayed.
Orbital elements
Apogee altitude172.985 km
Perigee altitude167.144 km
Semi-major axis6,548.201 km
Eccentricity0.000446
Inclination53.0294°
RAAN164.7593°
Arg. of periapsis326.4147°
True anomaly133.96999°
Mean anomaly133.9332°
Eccentric anomaly133.9516°
Mean motion4.096 °/min
BSTAR0.0029875
Orbital period87.89 mins
Loading maneuver chart data...
Loading historical data...
Loading historical data...
Loading historical data...
Loading historical data...
Loading historical data...
Loading historical data...
Loading historical data...

STARLINK-1804 Visibility forecast

Observer location: undefined°, undefined

This satellite is decayed
Span
Click to sort rows by Start time (UTC) header in descending order
Start Az.
Max El. time (UTC)
Max El. Az.
Max El.
End time (UTC)
End Az.
|